Regional Weather Roundup
Issued by NWS

Home | Current Version | Previous Version | Graphics & Text | Print | Product List | Glossary On
Versions: 1 2 3 4 5 6 7 8 9 10 11 12 13 14 15 16 17 18 19 20 21 22 23 24 25 26 27 28 29 30 31 32 33 34 35 36 37 38 39 40 41 42 43 44 45 46 47 48 49 50
000
ASUS45 KSLC 270310
RWRUT

UTAH REGIONAL WEATHER ROUNDUP
NATIONAL WEATHER SERVICE SALT LAKE CITY UT
800 PM MST WED NOV 26 2014

UTZ001>011-023>025-270400-

NORTHERN UTAH

CITY           SKY/WX    TMP DP  RH WIND       PRES   REMARKS
BRIGHAM CITY   PTCLDY    45  29  53 CALM      30.34S
HILL AFB       CLEAR     44  27  50 S9        30.36S
LOGAN          CLEAR     41  30  65 CALM      30.34S
OGDEN          PTCLDY    44  29  55 S12       30.34F
PROVO AIRPORT  NOT AVBL
SALT LAKE CITY PTCLDY    46  30  53 SE10      30.35F
VERNAL         CLEAR     37  28  70 W5        30.36R WCI  33
WENDOVER       CLEAR     41  30  65 CALM      30.33F
HEBER CITY     CLEAR     30  27  86 E6        30.42R WCI  24
WEST JORDAN    CLEAR     45  34  65 SW10      30.37S

$$

UTZ012>022-026-027-270400-

SOUTHERN/CENTRAL UTAH

CITY           SKY/WX    TMP DP  RH WIND       PRES   REMARKS
BLANDING       CLEAR     37  20  49 N9        30.49R WCI  30
BRYCE CANYON   CLEAR     23  16  74 CALM      30.49S
CEDAR CITY     PTCLDY    40  17  39 S5        30.41R
DELTA          PTCLDY    38  29  68 NE8       30.40R WCI  32
MILFORD        CLEAR     39  23  52 W9        30.39R WCI  33
MOAB/CYNLANDS  CLEAR     35  13  40 CALM      30.38R
PRICE          PTCLDY    37  25  61 N10       30.41R WCI  30
ST GEORGE      CLEAR     50  16  25 CALM      30.37R
KANAB          CLEAR     37  18  44 NE5       30.44R WCI  34

$$

REGIONAL REPORTS     COLORADO/ARIZONA

CITY           SKY/WX    TMP DP  RH WIND       PRES   REMARKS
CRAIG, CO      MOCLDY    35  28  75 CALM      30.38R
GRAND JUNCTION CLEAR     35  23  61 E5        30.40R WCI  31
RIFLE          CLEAR     28  23  81 SW3       30.44R
MONTROSE       CLEAR     32  24  72 SE8       30.45R WCI  25
CORTEZ         CLEAR     31  20  63 E8        30.43R WCI  23
PAGE, AZ       CLEAR     47  20  34 S5        30.38S
GRAND CANYON   PTCLDY    27  11  51 NE3       30.47R
KINGMAN        CLEAR     47  16  29 CALM      30.33R
FLAGSTAFF      CLEAR     31  14  49 CALM      30.47R

$$

REGIONAL REPORTS    NEVADA/IDAHO/WYOMING

CITY           SKY/WX    TMP DP  RH WIND       PRES   REMARKS
LAS VEGAS, NV  CLEAR     59  19  21 SW6       30.26S
ELY            CLEAR     33  13  43 S10       30.45R WCI  25
ELKO           PTCLDY    37  30  75 CALM      30.34F
POCATELLO, ID  CLEAR     48  33  56 S12       30.28F
BURLEY         CLEAR     36  32  85 CALM      30.26F
EVANSTON, WY   PTCLDY    35  24  64 SW12      30.39S WCI  27
ROCK SPRINGS   CLEAR     35  26  69 SW5       30.36R WCI  31

$$



USA.gov is the U.S. government's official web portal to all federal, state and local government web resources and services.